User: anonymous   Login
Location: Gönnheim
(49.4488°N, 8.2383°E)
Time: 03:43:29
(UTC+00:00)
Language:

BREEZE-M DEB (TANK) - Orbit

View from above orbital plane
View from above orbital plane
View from above satellite
View from above satellite

Ground track
Ground track

The orbit data is extracted from the following two-line orbital elements,

1 27821U 03024B   25192.93937382  .00007304  00000-0  75803-3 0  9992
2 27821  49.4830  59.4696 4713634 193.3631 147.8253  6.13683521453808
Epoch (UTC): 11 July 2025 22:32:41
Eccentricity: 0.4713634
inclination: 49.4830°
perigee height: 284 km
apogee height: 12164 km
right ascension of ascending node: 59.4696°
argument of perigee: 193.3631°
revolutions per day: 6.13683521
mean anomaly at epoch: 147.8253°
orbit number at epoch: 45380

The dashed part of the orbit path shows where the satellite is in the earth's shadow,  

DLR